TimeEDT,TemperatureF,Dew PointF,Humidity,Sea Level PressureIn,VisibilityMPH,Wind Direction,Wind SpeedMPH,Gust SpeedMPH,PrecipitationIn,Events,Conditions,WindDirDegrees,DateUTC
12:53 AM,75.9,73.0,91,30.13,6.0,Calm,Calm,-,0.00,Rain,Light Rain,0,2012-10-05 04:53:00
1:53 AM,77.0,73.9,90,30.14,10.0,Calm,Calm,-,0.00,,Scattered Clouds,0,2012-10-05 05:53:00
2:53 AM,75.9,73.0,91,30.13,10.0,East,4.6,-,0.00,Rain,Light Rain,80,2012-10-05 06:53:00
4:04 AM,77.0,73.4,89,30.11,10.0,Calm,Calm,-,N/A,,Mostly Cloudy,0,2012-10-05 08:04:00
4:13 AM,77.0,73.4,89,30.11,10.0,Calm,Calm,-,N/A,,Scattered Clouds,0,2012-10-05 08:13:00
4:53 AM,75.0,73.0,94,30.10,6.0,Calm,Calm,-,N/A,,Partly Cloudy,0,2012-10-05 08:53:00
5:53 AM,75.9,73.0,91,30.11,10.0,Calm,Calm,-,N/A,,Clear,0,2012-10-05 09:53:00
6:53 AM,75.0,73.0,94,30.11,7.0,Calm,Calm,-,N/A,,Clear,0,2012-10-05 10:53:00
7:40 AM,73.4,71.6,94,30.11,7.0,Calm,Calm,-,N/A,Fog,Patches of Fog,0,2012-10-05 11:40:00
7:53 AM,75.0,72.0,90,30.11,5.0,Calm,Calm,-,N/A,Fog,Patches of Fog,0,2012-10-05 11:53:00
8:53 AM,79.0,75.0,88,30.11,10.0,NNW,3.5,-,N/A,,Clear,330,2012-10-05 12:53:00
9:53 AM,82.9,73.9,74,30.12,10.0,NNE,5.8,-,N/A,,Clear,20,2012-10-05 13:53:00
10:22 AM,82.4,75.2,79,30.12,10.0,NE,5.8,-,N/A,,Mostly Cloudy,40,2012-10-05 14:22:00
10:53 AM,84.0,73.9,72,30.11,10.0,Variable,4.6,-,N/A,,Mostly Cloudy,0,2012-10-05 14:53:00
11:11 AM,84.2,73.4,70,30.11,10.0,East,10.4,-,N/A,,Scattered Clouds,80,2012-10-05 15:11:00
11:53 AM,84.9,72.0,65,30.11,10.0,ENE,9.2,-,N/A,,Clear,70,2012-10-05 15:53:00
12:53 PM,84.9,73.9,69,30.09,10.0,ENE,9.2,-,N/A,,Partly Cloudy,60,2012-10-05 16:53:00
1:53 PM,82.0,73.0,74,30.07,10.0,East,4.6,-,N/A,,Scattered Clouds,100,2012-10-05 17:53:00
2:53 PM,81.0,73.0,77,30.05,10.0,East,6.9,-,N/A,,Scattered Clouds,80,2012-10-05 18:53:00
3:18 PM,80.6,73.4,79,30.04,10.0,ENE,9.2,-,N/A,,Mostly Cloudy,70,2012-10-05 19:18:00
3:53 PM,81.0,73.0,77,30.02,10.0,ENE,8.1,-,N/A,,Mostly Cloudy,70,2012-10-05 19:53:00
4:53 PM,82.0,73.0,74,30.03,10.0,NE,8.1,-,0.00,,Mostly Cloudy,40,2012-10-05 20:53:00
5:03 PM,82.4,73.4,74,30.03,10.0,ENE,9.2,-,N/A,,Scattered Clouds,60,2012-10-05 21:03:00
5:53 PM,80.1,72.0,76,30.01,10.0,East,9.2,-,N/A,,Scattered Clouds,90,2012-10-05 21:53:00
6:07 PM,80.6,71.6,74,30.02,10.0,ENE,5.8,-,N/A,,Mostly Cloudy,60,2012-10-05 22:07:00
6:46 PM,78.8,71.6,78,30.02,10.0,East,5.8,-,N/A,,Scattered Clouds,100,2012-10-05 22:46:00
6:53 PM,79.0,72.0,79,30.02,10.0,ESE,3.5,-,N/A,,Scattered Clouds,110,2012-10-05 22:53:00
7:53 PM,79.0,72.0,79,30.03,10.0,Calm,Calm,-,N/A,,Clear,0,2012-10-05 23:53:00
8:53 PM,78.1,73.0,84,30.03,10.0,Calm,Calm,-,N/A,,Clear,0,2012-10-06 00:53:00
9:53 PM,77.0,73.0,88,30.02,10.0,East,3.5,-,N/A,,Clear,100,2012-10-06 01:53:00
10:53 PM,78.1,73.0,84,30.03,10.0,Calm,Calm,-,N/A,,Clear,0,2012-10-06 02:53:00
11:53 PM,75.9,72.0,87,30.03,10.0,Calm,Calm,-,N/A,,Clear,0,2012-10-06 03:53:00